Home > Weather > Bad Mergentheim > Past weeks

Flag for Germany Past Weather in Bad Mergentheim, Baden-Württemberg, Germany — Yesterday and Last 2 Weeks

Now
72 °F

Scattered clouds.


Feels Like: 77 °F
Forecast: 58 / 77 °F
Wind: 10 mph from Northwest

Location: Niederstetten

Current Time: Aug 29, 2016 at 8:08:36 PM

Latest Report: Aug 29, 2016 at 7:20 PM


Visibility: N/A

Pressure: 30.12 "Hg

Humidity: 50%

Dew Point: 52 °F

Location of Bad MergentheimLocation

Past Weather in Bad Mergentheim — Graph

°F

Bad Mergentheim Temperature Yesterday

Maximum temperature yesterday: 88 °F (at 2:20 PM)
Minimum temperature yesterday: 68 °F (at 10:20 AM)
Average temperature yesterday: 78 °F

High & Low Weather Summary for the Past Weeks

 TemperatureHumidityPressure
High91 °F (Aug 27, 1:20 PM)100% (Aug 23, 5:20 AM)30.42 "Hg (Aug 23, 5:20 AM)
Low46 °F (Aug 18, 6:20 AM)27% (Aug 25, 3:20 PM)29.83 "Hg (Aug 18, 7:20 AM)
Average68 °F63%30.10 "Hg
* Reported Aug 14 6:20 PM — Aug 29 6:20 PM, Bad Mergentheim, Weather by CustomWeather, © 2016

Note: Actual official high and low records may vary slightly from our data, if they occured in-between our weather recording intervals... More about our weather records

Advertising

Bad Mergentheim Weather History for the Previous 24 Hours

Scroll right to see more
 ConditionsComfort  
Time TempWeatherWind HumidityBarometerVisibility
6:20 PM
Mon, Aug 29
75 °FScattered clouds.10 mph39%30.12 "HgN/A
5:20 PM75 °FPassing clouds.9 mph39%30.09 "HgN/A
4:20 PM75 °FPassing clouds.8 mph44%30.09 "HgN/A
3:20 PM75 °FPassing clouds.13 mph39%30.09 "HgN/A
2:20 PM77 °FPassing clouds.9 mph39%30.12 "HgN/A
1:20 PM75 °FPassing clouds.10 mph41%30.12 "HgN/A
12:20 PM72 °FScattered clouds.10 mph50%30.12 "HgN/A
11:20 AM72 °FPartly sunny.12 mph57%30.12 "HgN/A
10:20 AM68 °FPartly sunny.8 mph69%30.09 "HgN/A
9:20 AM68 °FPartly sunny.12 mph73%30.09 "HgN/A
8:20 AM66 °FPartly sunny.8 mph78%30.09 "HgN/A
7:20 AM64 °FPassing clouds.9 mph83%30.07 "HgN/A
6:20 AM63 °FPassing clouds.7 mph88%30.07 "HgN/A
5:20 AM64 °FPassing clouds.9 mph83%30.07 "HgN/A
4:20 AM66 °FPassing clouds.9 mph78%30.07 "HgN/A
3:20 AM66 °FPassing clouds.7 mph78%30.07 "HgN/A
2:20 AM70 °FPassing clouds.6 mph69%30.07 "HgN/A
1:20 AM72 °FPassing clouds.8 mph65%30.07 "HgN/A
12:20 AM72 °FPassing clouds.6 mph65%30.07 "HgN/A
11:20 PM
Sun, Aug 28
75 °FPassing clouds.5 mph57%30.07 "HgN/A
10:20 PM73 °FPassing clouds.5 mph57%30.04 "HgN/A
9:20 PM79 °FPassing clouds.8 mph45%30.04 "HgN/A
8:20 PM81 °FScattered clouds.6 mph45%30.01 "HgN/A
Weather by CustomWeather, © 2016

See weather overviewHow to use our weather pages